User: anonymous   Login
Location: Unspecified
(0.0000°N, 0.0000°E)
Time: 23:15:43
(UTC+00:00)
Language:

deb DMSP - Orbit

View from above orbital plane
View from above orbital plane
View from above satellite
View from above satellite

Ground track
Ground track

The orbit data is extracted from the following two-line orbital elements,

1 24756U 97012B   18052.35948127  .00010290  00000-0  56716-3 0  9998
2 24756  98.8156 204.9082 0005139 259.0525 157.3424 15.14232228103778
Epoch (UTC): 21 February 2018 08:37:39
Eccentricity: 0.0005139
inclination: 98.8156°
perigee height: 520 km
apogee height: 527 km
right ascension of ascending node: 204.9082°
argument of perigee: 259.0525°
revolutions per day: 15.14232228
mean anomaly at epoch: 157.3424°
orbit number at epoch: 10377

The dashed part of the orbit path shows where the satellite is in the earth's shadow,  

DLR